Weather History for Park Rapids, MN

Change the Weather History Date:

Friday, January 11, 2013

  Actual Average Record
Temperature  
Mean Temperature 32 °F -  
Max Temperature 33 °F 13 °F 44 °F (1990)
Min Temperature 30 °F -9 °F -35 °F (1979)
Degree Days  
Heating Degree Days 34    
Moisture  
Dew Point 31 °F    
Average Humidity 95    
Maximum Humidity 100    
Minimum Humidity 92    
Precipitation  
Precipitation 0.14 in - - ()
Sea Level Pressure  
Sea Level Pressure 29.43 in    
Wind  
Wind Speed 7 mph (ESE)    
Max Wind Speed 15 mph    
Max Gust Speed -    
Visibility 2 miles    
Events Fog , Rain    
Averages and records for this station are not official NWS values.
T = Trace of Precipitation, MM = Missing Value Source: NWS Daily Summary

Daily Weather History Graph

Daily Weather History Graph

Search for Another Location

Airport:

Trip Planner

Search our weather history database for the weather conditions in past years. The results will help you decide how hot, cold, wet, or windy it might be!

Date:

Astronomy

Jan. 11, 2013 Rise Set
Actual Time 8:03 AM CST 4:53 PM CST
Civil Twilight 7:28 AM CST 5:28 PM CST
Nautical Twilight 6:50 AM CST 6:06 PM CST
Astronomical Twilight 6:14 AM CST 6:42 PM CST
Moon 7:34 AM CST (1/11) 5:16 PM CST (1/11)
Length of Visible Light 9h 59m
Length of Day
8h 50m
Waning Crescent, 0% of the Moon is Illuminated
Jan 11
Waning Crescent
Jan 11
New
Jan 18
First Quarter
Jan 26
Full
Feb 3
Last Quarter

Hourly Weather History & Observations

Time (CST) Temp. Windchill Dew Point Humidity Pressure Visibility Wind Dir Wind Speed Gust Speed Precip Events Conditions
12:17 AM 32.0 °F 21.6 °F 30.2 °F 93% 29.59 in 6.0 mi SSE 15.0 mph - 0.01 in   Overcast
12:53 AM 32.0 °F 22.5 °F 30.0 °F 92% 29.62 in 8.0 mi SSE 12.7 mph - 0.02 in   Overcast
1:05 AM 32.0 °F 22.1 °F 30.2 °F 93% 29.57 in 7.0 mi SSE 13.8 mph - 0.00 in Rain Light Freezing Rain
1:53 AM 32.0 °F 23.0 °F 30.0 °F 92% 29.60 in 4.0 mi South 11.5 mph - 0.01 in Rain Light Freezing Rain
2:53 AM 32.0 °F 23.6 °F 30.0 °F 92% 29.59 in 7.0 mi SSE 10.4 mph - 0.02 in Rain Light Freezing Rain
3:53 AM 32.0 °F 24.2 °F 30.9 °F 96% 29.56 in 7.0 mi SSE 9.2 mph - 0.01 in Rain Light Freezing Rain
4:03 AM 32.0 °F 24.8 °F 30.2 °F 93% 29.51 in 5.0 mi SSE 8.1 mph - 0.01 in Rain Light Freezing Rain
4:22 AM 32.0 °F 25.6 °F 30.2 °F 93% 29.51 in 5.0 mi South 6.9 mph - 0.03 in   Overcast
4:53 AM 32.0 °F 25.6 °F 30.9 °F 96% 29.55 in 5.0 mi SSE 6.9 mph - 0.04 in   Overcast
5:53 AM 32.0 °F 26.4 °F 30.9 °F 96% 29.53 in 3.0 mi SE 5.8 mph - 0.01 in   Overcast
6:29 AM 32.0 °F 26.4 °F 30.2 °F 93% 29.49 in 2.0 mi SSE 5.8 mph - 0.00 in   Overcast
6:53 AM 32.0 °F 27.5 °F 30.9 °F 96% 29.53 in 1.8 mi SE 4.6 mph - 0.00 in   Overcast
7:01 AM 32.0 °F 27.5 °F 30.2 °F 93% 29.48 in 2.0 mi SE 4.6 mph - N/A   Overcast
7:11 AM 32.0 °F 27.5 °F 30.2 °F 93% 29.47 in 1.8 mi SE 4.6 mph - N/A   Overcast
7:20 AM 32.0 °F 27.5 °F 30.2 °F 93% 29.48 in 2.0 mi SE 4.6 mph - N/A   Overcast
7:53 AM 32.0 °F - 30.9 °F 96% 29.51 in 2.0 mi Calm Calm - N/A   Overcast
8:23 AM 32.0 °F 28.7 °F 30.2 °F 93% 29.47 in 4.0 mi ESE 3.5 mph - 0.00 in   Overcast
8:36 AM 32.0 °F 28.7 °F 30.2 °F 93% 29.47 in 1.8 mi ESE 3.5 mph - 0.00 in   Overcast
8:51 AM 32.0 °F 27.5 °F 30.2 °F 93% 29.47 in 0.5 mi ESE 4.6 mph - 0.00 in Fog Fog
8:53 AM 32.0 °F 28.7 °F 30.9 °F 96% 29.52 in 0.5 mi ESE 3.5 mph - 0.00 in Fog Fog
9:12 AM 32.0 °F 27.5 °F 30.2 °F 93% 29.47 in 0.2 mi SE 4.6 mph - N/A Fog Fog
9:53 AM 32.0 °F - 32.0 °F 100% 29.53 in 0.2 mi Calm Calm - N/A Fog Fog
10:53 AM 32.0 °F 28.7 °F 32.0 °F 100% 29.51 in 0.2 mi East 3.5 mph - N/A Fog Fog
11:53 AM 32.0 °F 28.7 °F 30.9 °F 96% 29.47 in 0.2 mi East 3.5 mph - N/A Fog Fog
12:53 PM 32.0 °F 28.7 °F 32.0 °F 100% 29.46 in 0.2 mi East 3.5 mph - 0.00 in Fog Fog
1:01 PM 32.0 °F - 32.0 °F 100% 29.41 in 0.5 mi Calm Calm - 0.00 in Fog Fog
1:17 PM 32.0 °F 28.7 °F 32.0 °F 100% 29.41 in 1.2 mi SE 3.5 mph - 0.02 in   Overcast
1:53 PM 32.0 °F 27.5 °F 32.0 °F 100% 29.40 in 1.8 mi East 4.6 mph - N/A   Overcast
2:01 PM 32.0 °F 27.5 °F 32.0 °F 100% 29.39 in 3.0 mi East 4.6 mph - 0.00 in   Overcast
2:11 PM 33.8 °F 30.8 °F 32.0 °F 93% 29.39 in 1.8 mi ENE 3.5 mph - 0.00 in   Overcast
2:17 PM 33.8 °F - 32.0 °F 93% 29.39 in 2.0 mi Calm Calm - 0.00 in   Overcast
2:36 PM 33.8 °F - 32.0 °F 93% 29.39 in 1.8 mi Calm Calm - 0.00 in Rain Light Rain
2:53 PM 33.1 °F 30.0 °F 32.0 °F 96% 29.44 in 1.5 mi East 3.5 mph - 0.00 in   Overcast
3:13 PM 33.8 °F 30.8 °F 32.0 °F 93% 29.39 in 2.5 mi East 3.5 mph - N/A   Overcast
3:26 PM 33.8 °F - 32.0 °F 93% 29.39 in 1.2 mi Calm Calm - N/A   Overcast
3:37 PM 33.8 °F 30.8 °F 32.0 °F 93% 29.38 in 0.5 mi East 3.5 mph - N/A Fog Fog
3:51 PM 33.8 °F 30.8 °F 32.0 °F 93% 29.38 in 0.2 mi East 3.5 mph - N/A Fog Fog
3:53 PM 33.1 °F 30.0 °F 32.0 °F 96% 29.43 in 0.2 mi East 3.5 mph - N/A Fog Fog
4:53 PM 33.1 °F - 32.0 °F 96% 29.42 in 0.5 mi Calm Calm - N/A Fog Fog
5:53 PM 33.1 °F 30.0 °F 32.0 °F 96% 29.39 in 1.0 mi ENE 3.5 mph - N/A   Mist
6:34 PM 33.8 °F - 32.0 °F 93% 29.35 in 0.8 mi Calm Calm - N/A   Mist
6:45 PM 33.8 °F - 32.0 °F 93% 29.34 in 1.0 mi Calm Calm - N/A   Mist
6:53 PM 33.1 °F - 32.0 °F 96% 29.40 in 1.0 mi Calm Calm - N/A   Mist
7:06 PM 33.8 °F 30.8 °F 32.0 °F 93% 29.34 in 0.8 mi NNE 3.5 mph - 0.01 in   Mist
7:25 PM 33.8 °F - 32.0 °F 93% 29.33 in 1.0 mi Calm Calm - 0.01 in   Mist
7:53 PM 33.1 °F - 32.0 °F 96% 29.37 in 1.5 mi Calm Calm - 0.02 in   Overcast
8:31 PM 33.8 °F - 32.0 °F 93% 29.33 in 2.0 mi Calm Calm - N/A   Overcast
8:49 PM 33.8 °F - 32.0 °F 93% 29.32 in 1.5 mi Calm Calm - 0.01 in   Overcast
8:53 PM 32.0 °F - 30.9 °F 96% 29.38 in 1.8 mi Calm Calm - 0.01 in   Overcast
9:25 PM 32.0 °F 28.7 °F 30.2 °F 93% 29.31 in 2.5 mi NNW 3.5 mph - N/A   Overcast
9:36 PM 32.0 °F - 30.2 °F 93% 29.31 in 2.5 mi Calm Calm - N/A   Overcast
9:43 PM 32.0 °F - 30.2 °F 93% 29.31 in 3.0 mi Calm Calm - N/A   Overcast
9:53 PM 32.0 °F 27.5 °F 30.9 °F 96% 29.35 in 4.0 mi North 4.6 mph - N/A   Overcast
10:26 PM 32.0 °F 28.7 °F 30.2 °F 93% 29.29 in 5.0 mi NNW 3.5 mph - N/A   Overcast
10:33 PM 32.0 °F 26.4 °F 30.2 °F 93% 29.30 in 5.0 mi WNW 5.8 mph - N/A   Overcast
10:53 PM 32.0 °F 25.6 °F 30.2 °F 93% 29.29 in 7.0 mi WNW 6.9 mph - N/A   Overcast
11:29 PM 30.2 °F 22.6 °F 30.2 °F 100% 29.29 in 2.5 mi WNW 8.1 mph - N/A   Overcast
11:40 PM 30.2 °F 21.9 °F 30.2 °F 100% 29.28 in 1.8 mi WNW 9.2 mph - N/A   Overcast
11:53 PM 30.9 °F 22.2 °F 30.0 °F 96% 29.33 in 3.0 mi NW 10.4 mph - N/A   Overcast